Location: Greenwich
(51.4790°N, 0.0090°E)
Time: 08:43:36
(UTC+01:00)

Explorer 7 - Pass Details

Date: 22 April 2024
Orbit: 467 x 625 km, 50.3° (Epoch: 24 May)

Event Time Altitude Azimuth Distance (km) Brightness Sun altitude
Rises 14:08:53 0° 267° (W) 2,915 10.8 48.5°
Reaches altitude 10° 14:11:13 10° 267° (W) 2,009 10.1 48.3°
Maximum altitude 14:15:51 78° 182° (S) 643 8.4 48.0°
Drops below altitude 10° 14:20:25 10° 96° (E) 1,974 9.6 47.6°
Sets 14:22:41 0° 95° (E) 2,861 10.3 47.4°
